Hourly Data Report for May 31, 2012

All times are specified in Local Standard Time (LST). Add 1 hour to adjust for Daylight Saving Time where and when it is observed.

ST. JOHN'S INTL A
NEWFOUNDLAND

47°37'07.000" N
52°45'09.000" W
140.50 m
8403505
71801
YYT

Download Data

Hourly Data (May 2012)
Hourly Data Report for May 31, 2012
Temp Definition
°C
Dew Point Temp Definition
°C
Rel Hum Definition
%
Wind Dir Definition
10's deg

Wind Spd Definition
km/h
Visibility Definition
km
Stn Press Definition
kPa
Hmdx Definition


Wind Chill Definition


Weather Definition


TIME
00:30 2.9 2.6 98 30 13 6.4 99.37     Drizzle,Fog
01:30 3.0 2.9 99 29 15 9.7 99.34     Drizzle,Fog
02:30 3.1 3.1 100 29 14 2.0 99.39     Drizzle,Fog
03:30 3.2 3.2 100 30 8 9.7 99.34     Drizzle,Fog
04:30 3.3 3.3 100 34 7 10.0 99.34     Drizzle
05:30 3.6 3.6 100 35 8 9.7 99.36     Drizzle
06:30 4.3 4.2 99 2 8 10.0 99.35     Drizzle
07:30 4.8 4.2 96 2 7 10.0 99.38     LegendNANA
08:30 5.6 4.9 95 1 12 10.0 99.41     Cloudy
09:30 6.6 5.4 92 1 8 10.0 99.40     Drizzle
10:30 7.5 5.7 88 2 13 10.0 99.38     Drizzle
11:30 9.8 6.7 81 7 13 10.0 99.35     Cloudy
12:30 9.2 6.1 81 5 15 10.0 99.33     LegendNANA
13:30 8.8 6.3 84 4 13 10.0 99.34     LegendNANA
14:30 8.1 5.7 85 6 13 10.0 99.32     Cloudy
15:30 7.4 5.6 88 4 21 10.0 99.31     LegendNANA
16:30 7.3 5.9 91 7 10 10.0 99.33     LegendNANA
17:30 6.9 5.5 91 4 11 10.0 99.34     Cloudy
18:30 6.8 5.6 92 1 10 10.0 99.40     LegendNANA
19:30 5.4 4.8 96 4 11 10.0 99.40     LegendNANA
20:30 5.6 5.0 96 1 8 10.0 99.45     Cloudy
21:30 6.2 5.5 95 32 8 10.0 99.48     LegendNANA
22:30 6.1 5.7 97 36 11 10.0 99.42     Drizzle
23:30 4.8 4.7 99 2 8 0.8 99.38     Drizzle,Fog

Notes on Data Quality.

Legend

  • E = Estimated
  • M = Missing
  • NA = Not Available
Date modified: